TDRS 7

Last updated on Tue Jul 08 2025 00:02:38 GMT+0000 (Coordinated Universal Time)

1 23613U 95035B 25188.62613552 -.00000233 00000+0 00000+0 0 9998 2 23613 13.5196 350.5563 0010996 87.0793 163.0123 1.00272613109792
UTC large
Height (km)
Speed (km/s)
/
Latitude / Longitude
Inclination (degrees)
Orbital Period (minutes)
Azimuth
Elevation
Range (km)
Doppler Factor

Next 0 passes for location: London (51.5072 / 0.1276)

Sorry there are no passes over London.